Virginia Beach, VA

8:44 PM EST on February 19, 2017 (GMT -0500)
Norfolk International

Weather History for KORF - April, 2013

Change the Weather History Date:

Wednesday, April 10, 2013

  Actual Average Record
Temperature  
Mean Temperature 78 °F 57 °F  
Max Temperature 89 °F 66 °F 89 °F (2013)
Min Temperature 66 °F 47 °F 31 °F (1972)
Degree Days  
Heating Degree Days 0 9  
Month to date heating degree days 99 102  
Since 1 July heating degree days 3086 3163  
Cooling Degree Days 13 1  
Month to date cooling degree days 24 10  
Year to date cooling degree days 24 17  
Growing Degree Days 28 (Base 50)    
Moisture  
Dew Point 58 °F    
Average Humidity 52    
Maximum Humidity 70    
Minimum Humidity 34    
Precipitation  
Precipitation 0.00 in 0.13 in 1.61 in (1928)
Month to date precipitation 0.92 1.14  
Year to date precipitation 10.98 11.34  
Snow  
Snow 0.00 in 0.00 in 0.00 in (2002)
Month to date snowfall 0.0 0.0  
Since 1 July snowfall 1.8 5.8  
Snow Depth 0.00 in    
Sea Level Pressure  
Sea Level Pressure 29.97 in    
Wind  
Wind Speed 14 mph (SW)    
Max Wind Speed 21 mph    
Max Gust Speed 28 mph    
Visibility 10 miles    
Events      
T = Trace of Precipitation, MM = Missing Value Source: NWS Daily Summary

Daily Weather History Graph

Daily Weather History Graph

Search for Another Location

Airport or City:

Trip Planner

Search our weather history database for the weather conditions in past years. The results will help you decide how hot, cold, wet, or windy it might be!

Date:

Astronomy

Apr. 10, 2013 Rise Set
Actual Time 6:37 AM EDT 7:35 PM EDT
Civil Twilight 6:10 AM EDT 8:01 PM EDT
Nautical Twilight 5:39 AM EDT 8:33 PM EDT
Astronomical Twilight 5:06 AM EDT 9:05 PM EDT
Moon 6:32 AM EDT (4/10) 8:07 PM EDT (4/10)
Length of Visible Light 13h 50m
Length of Day
12h 57m
New Moon, 0% of the Moon is Illuminated
Apr 10
New Moon
Apr 18
First Quarter
Apr 25
Full
May 2
Last Quarter
May 9
New

Hourly Weather History & Observations

Time (EDT) Temp. Heat Index Dew Point Humidity Pressure Visibility Wind Dir Wind Speed Gust Speed Precip Events Conditions
12:51 AM 70.0 °F - 59.0 °F 68% 30.04 in 10.0 mi SSW 11.5 mph - N/A   Clear
1:51 AM 69.1 °F - 57.9 °F 68% 30.02 in 10.0 mi SSW 11.5 mph - N/A   Clear
2:51 AM 69.1 °F - 57.0 °F 65% 30.00 in 10.0 mi SSW 12.7 mph - N/A   Clear
3:51 AM 68.0 °F - 55.9 °F 65% 30.00 in 10.0 mi SSW 11.5 mph - N/A   Clear
4:51 AM 68.0 °F - 55.9 °F 65% 30.01 in 10.0 mi SW 12.7 mph - N/A   Clear
5:51 AM 68.0 °F - 55.9 °F 65% 30.02 in 10.0 mi SW 13.8 mph - N/A   Clear
6:51 AM 66.9 °F - 55.9 °F 68% 30.03 in 10.0 mi SW 10.4 mph - N/A   Clear
7:51 AM 68.0 °F - 57.0 °F 68% 30.03 in 10.0 mi SW 16.1 mph - N/A   Clear
8:51 AM 72.0 °F - 57.0 °F 59% 30.04 in 10.0 mi SW 13.8 mph - N/A   Clear
9:51 AM 75.0 °F - 57.9 °F 55% 30.04 in 10.0 mi WSW 13.8 mph - N/A   Clear
10:51 AM 78.1 °F - 59.0 °F 52% 30.03 in 10.0 mi SW 15.0 mph - N/A   Clear
11:51 AM 81.0 °F 81.3 °F 59.0 °F 47% 30.02 in 10.0 mi SSW 9.2 mph - N/A   Clear
12:51 PM 84.0 °F 83.8 °F 59.0 °F 43% 30.00 in 10.0 mi SW 10.4 mph - N/A   Clear
1:51 PM 87.1 °F 85.9 °F 57.0 °F 36% 29.99 in 10.0 mi West 8.1 mph - N/A   Clear
2:51 PM 88.0 °F 87.1 °F 59.0 °F 37% 29.96 in 10.0 mi SW 11.5 mph - N/A   Clear
3:51 PM 89.1 °F 87.7 °F 57.0 °F 34% 29.92 in 10.0 mi SSW 13.8 mph - N/A   Clear
4:51 PM 88.0 °F 86.7 °F 57.0 °F 35% 29.90 in 10.0 mi SSW 17.3 mph 23.0 mph N/A   Clear
5:51 PM 87.1 °F 85.9 °F 57.0 °F 36% 29.90 in 10.0 mi SW 17.3 mph 24.2 mph N/A   Clear
6:51 PM 84.9 °F 83.7 °F 55.9 °F 37% 29.90 in 10.0 mi SW 17.3 mph 20.7 mph N/A   Clear
7:51 PM 81.0 °F 81.0 °F 57.0 °F 44% 29.89 in 10.0 mi SW 13.8 mph - N/A   Clear
8:51 PM 78.1 °F - 57.0 °F 48% 29.90 in 10.0 mi SW 11.5 mph - N/A   Clear
9:51 PM 77.0 °F - 57.0 °F 50% 29.90 in 10.0 mi SW 12.7 mph - N/A   Clear
10:51 PM 73.4 °F - 60.8 °F 65% 29.91 in 10.0 mi SSW 17.3 mph 24.2 mph N/A   Clear
11:51 PM 72.0 °F - 59.0 °F 64% 29.91 in 10.0 mi SSW 18.4 mph - N/A   Clear